sat.trackr.live / text

‹ back to catalog

STARLINK-5776

NORAD 57151 · 2023-090BC

PAYLOAD ACTIVE UNKNOWN

§ Identity

Operator
Country
US
Launch date
2023-06-23
Launch site
AFETR
Launch vehicle
Mass (kg)
RCS (m²)

Purposes: comms

External: N2YO · Heavens-Above · Gunter

§ Orbital elements

Epoch: 2026-05-25T04:49:20.659584Z

Period
94.20 min
Inclination
43.0017°
Eccentricity
0.0002078
Mean motion
15.28614219 rev/d
Perigee alt
478.5 km
Apogee alt
481.4 km
Semi-major
6,858.1 km
B*
1.7269e-2
RAAN
191.3324°
Arg perigee
253.2408°
Mean anomaly
106.8216°
Rev number
16,224

§ Raw data

STARLINK-57761 57151U 23090BC  26145.20093356  .00526705  00000+0  17269-1 0  99992 57151  43.0017 191.3324 0002078 253.2408 106.8216 15.28614219162248

JSON: /api/v1/satellites/57151 · /tle

For live sub-satellite position, see the globe view (requires WebGL).

§ Visibility from observer

Set your observer location to see the next 7 days of passes ≥ 10°. The values pass through the URL so the page stays shareable.

No JS? Fill the form by hand. The geolocation button needs JavaScript.